Temperature
21 21 21 21 21 21 21 20 20 20 20 20 20 20 20 19 19 18 18 17 16 16 16 16 15 15 15 15 15 14 14 14 14 14 13 13 13 13 13 12 12 12 12 11
20 21 21 20 21 21 21 21 20 20 19 20 20 20 19 19 18 17 17 16 16 16 15 15 15 15 15 15 14 14 14 14 13 13 13 13 13 13 12 12 12 12 11 11
19 20 20 19 20 20 20 20 20 19 19 19 19 19 18 18 17 17 16 16 15 15 15 15 15 14 15 15 14 14 14 13 13 13 13 12 12 12 12 12 12 11 11 11
18 19 18 19 20 20 19 19 19 18 18 18 18 18 17 17 16 16 16 15 15 14 14 14 14 14 14 14 14 13 13 13 13 12 12 12 12 12 12 11 11 11 11 11
17 17 18 19 19 19 19 18 18 17 17 17 17 17 16 16 15 15 15 15 14 14 14 14 14 14 14 14 14 13 13 13 12 12 12 12 11 11 11 11 11 11 11 10
17 17 17 17 18 19 18 16 17 17 16 16 16 15 15 15 14 14 14 14 14 13 14 13 13 14 14 14 13 13 13 13 12 12 12 11 11 11 11 11 11 10 10 10
16 16 16 17 18 18 16 15 16 16 15 15 15 14 14 13 13 13 13 13 13 13 13 13 13 13 13 13 13 13 12 12 12 12 11 11 11 11 10 10 10 10 10 10
16 16 15 17 17 16 16 15 15 15 14 14 14 14 13 12 12 12 12 12 12 12 12 12 12 12 12 12 12 12 12 12 11 11 11 10 10 10 10 10 10 9 9 9
16 15 16 16 16 15 15 15 14 14 14 13 13 13 12 12 12 12 11 11 11 11 11 12 12 12 12 12 12 11 11 11 11 11 10 10 10 10 9 9 9 9 9 9
16 15 15 15 15 15 14 14 14 13 13 13 12 12 12 11 11 11 11 11 11 10 11 11 11 11 11 11 11 11 11 10 10 10 10 9 9 9 9 9 9 8 8 8
15 15 15 14 14 14 13 13 13 13 13 12 12 11 11 11 11 11 10 10 10 10 10 10 10 10 10 10 10 10 10 10 9 9 9 9 9 9 8 8 8 8 8 8
14 14 14 13 13 13 13 12 12 12 12 12 11 11 11 11 10 10 10 10 10 10 10 10 10 10 10 10 10 9 9 9 9 9 9 9 8 8 8 8 7 7 7 7
13 13 13 13 12 12 12 12 12 12 11 11 11 11 10 10 10 10 10 10 10 10 9 9 9 9 9 9 9 9 9 9 8 8 8 8 8 8 8 7 7 7 7 7
12 12 12 12 11 11 11 11 11 11 11 11 10 10 10 10 10 10 9 9 9 9 9 9 9 9 9 9 8 8 8 8 8 8 8 8 7 7 7 7 7 7 6 6
11 11 11 11 11 11 11 11 10 10 10 10 10 10 9 9 9 9 9 9 9 9 9 9 8 8 8 8 8 8 7 7 7 7 7 7 7 7 7 6 6 6 6 5
11 10 10 10 10 10 10 10 10 10 10 9 9 9 9 9 9 9 9 8 8 8 8 8 8 8 8 8 7 7 7 7 7 7 7 7 7 6 6 6 5 5 5 5
10 10 10 10 9 9 9 9 9 9 9 9 9 9 8 8 8 8 8 8 8 8 7 7 7 7 7 7 7 7 7 6 6 6 6 6 6 6 6 5 5 5 5 5
10 9 9 9 9 9 8 8 8 8 8 8 8 8 8 8 8 7 7 7 7 7 7 7 7 7 7 6 6 6 6 6 6 6 6 6 5 5 5 5 5 4 4 4
9 9 9 8 8 8 8 8 8 8 8 7 7 7 7 7 7 7 6 6 6 6 6 6 6 6 6 6 6 6 6 5 5 5 5 5 5 5 4 4 4 4 3 3
8 8 8 8 8 7 7 7 7 7 7 7 7 6 6 6 6 6 6 6 6 6 5 5 5 5 5 5 5 5 5 5 5 4 4 4 4 4 4 4 3 3 3 3
7 7 7 7 7 7 6 6 6 6 6 6 6 6 5 5 5 5 5 5 5 5 5 5 5 5 5 5 5 4 4 4 4 4 4 4 4 3 3 3 3 3 3 3
7 6 6 6 6 6 6 6 6 6 5 5 5 5 5 5 5 4 4 4 4 4 4 4 4 4 4 4 4 4 4 4 3 3 3 3 3 3 3 3 3 3 2 2
6 6 6 6 5 5 5 5 5 5 5 5 4 4 4 4 4 4 4 4 4 4 4 4 4 4 4 4 4 4 3 3 3 3 3 3 3 3 2 2 2 2 2 2
5 5 5 5 5 5 4 4 4 4 4 4 4 4 4 3 3 3 3 3 3 3 3 3 3 4 4 4 3 3 3 3 3 3 3 2 2 2 2 2 2 2 2 2
5 5 4 4 4 4 4 4 3 3 3 3 3 3 3 3 2 2 2 3 3 3 3 3 3 3 3 3 3 3 3 3 2 2 2 2 2 2 2 2 2 2 2 2
4 4 4 4 4 3 3 3 3 3 2 2 2 2 2 2 2 2 2 2 3 3 3 3 3 3 3 3 3 3 2 2 2 2 2 2 1 1 1 1 1 1 1 1
3 3 3 3 3 3 3 2 2 2 2 2 1 1 1 1 2 2 2 2 2 2 3 3 3 3 3 3 2 2 2 2 2 2 1 1 1 1 1 1 1 1 1 1
Wind_Speed
10 9 9 10 9 8 8 8 8 8 6 4 3 2 2 2 2 3 3 3 3 2 1 1 2 3 4 4 5 6 6 6 5 5 5 5 4 4 4 4 3 3 2 2
10 9 9 10 10 10 9 8 8 7 6 4 4 4 2 2 3 4 4 3 3 2 1 1 1 3 3 4 5 5 6 6 5 5 4 4 4 4 3 3 3 3 3 2
9 8 8 8 7 7 6 5 5 6 5 4 4 3 3 3 3 3 4 3 2 2 1 1 2 3 3 4 5 5 5 5 5 5 5 5 5 4 4 3 3 3 3 2
7 8 8 3 3 3 3 4 4 4 4 4 4 3 4 5 4 3 3 2 2 2 2 2 1 2 2 3 4 5 5 5 4 5 4 4 4 4 4 3 3 3 3 2
6 7 6 4 4 4 4 3 5 5 5 6 5 3 4 7 6 5 4 3 2 2 2 2 2 1 2 3 3 4 4 4 4 5 4 4 4 3 3 3 3 3 3 3
6 7 6 2 5 5 4 1 5 6 5 5 5 3 3 6 6 5 5 4 4 3 2 2 2 2 1 1 2 3 3 4 4 4 4 4 4 3 2 2 3 3 2 3
7 7 4 4 5 4 3 2 5 6 5 5 4 4 4 5 5 5 5 4 4 3 2 2 2 1 1 1 1 2 2 3 4 4 4 3 3 2 2 2 3 2 2 2
5 6 4 4 3 3 3 4 5 6 6 5 5 4 5 5 5 5 5 4 4 3 3 3 2 1 1 1 0 2 3 3 3 3 3 3 3 3 3 3 3 3 2 2
2 2 1 3 4 4 4 3 4 4 5 4 4 4 4 4 4 4 4 4 4 4 3 3 3 1 1 1 0 2 3 3 3 3 3 3 3 4 3 3 3 3 3 2
4 2 2 3 4 5 5 4 5 4 3 3 3 3 4 4 4 4 3 4 3 3 3 3 2 2 1 1 0 1 2 3 3 3 3 3 2 3 3 3 3 3 2 2
7 4 4 3 4 5 5 5 5 5 4 4 4 4 4 4 4 4 3 3 3 3 3 3 2 2 2 1 1 2 2 2 2 2 3 2 2 1 2 2 2 2 2 2
6 4 5 5 5 7 7 6 7 7 6 4 4 5 5 5 4 4 3 3 3 4 4 3 2 1 1 1 1 1 2 2 2 2 2 2 2 1 1 2 3 3 2 2
6 6 6 5 6 6 7 8 8 7 6 5 5 4 5 5 4 4 4 4 4 4 4 3 2 1 1 1 2 2 2 2 2 2 3 3 3 4 2 1 2 2 2 3
4 5 6 6 6 6 7 7 7 7 5 5 4 4 5 5 5 4 5 4 5 4 3 2 2 2 1 1 2 2 2 3 3 3 4 4 4 4 3 3 2 1 2 4
5 6 6 6 6 6 6 6 7 6 5 4 4 4 4 5 5 5 5 4 4 4 3 2 2 2 1 1 2 3 2 2 3 3 3 4 4 3 3 3 3 2 2 2
5 5 5 5 6 6 7 7 7 7 6 5 5 5 4 4 5 5 4 3 3 4 3 3 3 2 2 2 2 2 2 3 3 3 3 3 3 3 3 4 3 3 4 3
5 5 6 6 7 7 7 6 6 6 6 6 6 5 4 3 4 4 4 4 4 3 3 3 3 2 2 2 3 2 2 3 4 3 3 3 3 4 4 4 4 4 3 4
4 5 5 6 6 6 7 7 6 6 5 5 5 4 3 3 4 4 4 4 4 3 3 3 3 3 2 2 2 2 2 2 2 3 3 3 3 3 3 3 3 3 3 3
4 5 5 6 6 6 6 6 6 5 5 5 4 4 4 4 4 4 4 4 4 4 4 3 3 3 2 1 1 1 2 2 2 2 2 3 3 2 3 3 3 3 3 3
5 5 5 6 6 5 6 6 6 5 5 4 4 4 5 5 5 4 4 4 4 3 3 3 3 3 2 2 2 2 2 2 2 2 2 2 2 2 2 3 3 3 3 3
5 5 5 5 5 5 5 5 5 5 4 3 3 4 4 5 4 4 3 4 3 3 3 4 3 2 1 1 2 2 2 2 2 2 2 2 2 2 2 2 2 3 3 3
5 5 5 5 5 5 5 4 4 4 4 4 4 4 4 4 4 4 3 3 3 3 3 2 2 2 1 2 1 1 1 2 1 1 1 2 2 2 2 2 2 2 2 2
5 5 5 4 5 5 5 4 4 4 4 4 4 4 4 4 3 3 3 3 2 4 3 2 2 2 2 1 1 1 2 2 2 2 2 2 2 2 2 2 2 2 2 2
5 5 5 4 4 5 5 5 4 4 4 4 3 3 3 3 3 3 3 4 5 5 3 2 3 2 1 1 1 1 2 2 2 2 2 1 1 1 2 2 2 2 2 3
5 5 4 4 4 4 4 4 4 4 4 3 4 3 3 3 3 3 3 3 5 5 3 2 3 2 1 1 1 2 2 2 1 1 1 1 2 2 2 2 2 2 2 3
4 4 3 3 3 3 3 3 3 3 3 4 4 3 3 3 3 3 3 3 3 4 2 1 2 2 1 1 2 2 1 1 2 2 2 2 2 2 2 2 2 2 2 2
3 3 3 3 3 3 3 3 3 4 3 3 4 4 3 3 3 3 3 3 2 2 2 1 1 1 1 1 1 1 1 1 1 1 1 1 1 1 2 2 2 2 2 2
Wind_Direction
279 284 290 289 282 264 257 260 263 275 288 304 335 347 10 27 66 89 91 92 92 100 131 173 181 186 182 179 175 173 174 181 189 181 175 173 171 168 173 180 180 170 162 160
280 277 275 277 281 275 274 276 265 269 278 311 333 339 3 36 60 74 73 73 80 93 104 175 201 202 197 189 179 175 178 184 180 178 177 172 169 167 173 169 167 162 165 163
281 281 282 268 279 271 270 284 287 282 295 325 332 353 17 47 75 78 65 54 55 48 42 242 226 221 219 198 178 175 180 183 181 179 179 181 175 166 170 176 170 165 164 153
278 279 264 288 346 323 315 339 348 340 347 354 1 34 63 54 56 50 61 61 45 11 349 325 289 234 224 195 179 178 183 182 178 172 174 173 170 176 177 172 170 171 169 172
270 273 265 281 321 328 320 330 12 1 6 15 10 22 65 42 42 35 28 40 27 7 347 337 331 270 221 210 180 176 180 177 171 161 162 164 171 178 170 166 167 167 169 180
261 270 272 319 348 339 307 297 24 14 11 16 9 0 10 17 23 27 17 20 10 356 353 355 342 324 245 215 178 186 180 164 153 155 165 172 171 165 156 157 169 170 178 181
252 262 272 331 339 328 286 9 24 21 20 15 11 3 357 6 6 13 9 11 6 358 354 345 342 335 288 277 212 170 131 133 142 157 166 160 156 154 154 160 163 168 179 181
263 262 272 3 351 359 14 35 27 15 11 1 1 18 12 9 7 6 354 351 352 342 340 339 331 288 232 263 241 122 124 129 141 155 161 148 148 154 158 161 169 180 185 192
263 255 11 30 35 27 25 26 13 1 352 2 354 357 358 355 352 349 343 339 338 335 334 342 350 356 302 287 15 135 138 144 152 155 151 152 156 164 166 169 179 186 182 189
282 270 312 347 18 12 7 357 348 342 340 335 324 330 336 334 332 328 325 322 324 322 318 324 337 352 329 309 226 166 165 160 159 162 157 156 161 165 173 183 187 189 188 190
284 276 297 321 346 345 340 338 333 327 318 311 306 306 310 306 306 308 304 310 307 300 294 299 327 350 343 344 292 206 187 174 174 158 149 145 144 165 180 181 170 174 190 184
284 305 303 307 325 329 324 324 320 315 307 302 294 293 297 296 296 295 291 290 287 289 294 293 299 311 346 323 283 231 205 186 171 162 162 160 152 118 92 161 141 143 153 169
303 312 304 306 313 318 311 309 306 301 295 295 296 294 293 291 289 288 283 281 282 281 286 294 294 281 290 282 267 244 225 202 182 181 181 182 181 174 171 152 145 159 188 195
312 309 300 305 306 306 304 304 302 299 298 302 306 303 298 294 291 288 282 282 282 279 276 274 273 265 258 235 249 253 236 213 205 199 196 197 195 190 187 185 182 197 205 200
289 289 289 297 302 302 305 305 302 301 302 304 301 298 297 298 297 295 294 295 291 280 272 271 263 262 245 219 230 239 239 220 208 206 198 200 197 189 190 195 194 186 170 183
291 293 297 301 302 305 305 303 301 301 301 300 296 292 293 295 295 296 298 297 287 283 281 270 266 267 246 226 227 230 235 233 229 221 210 197 193 192 194 198 199 195 194 191
283 286 292 295 298 302 303 303 300 297 298 298 296 292 289 292 295 295 298 298 290 289 292 282 274 282 258 232 219 218 219 221 231 233 220 204 198 201 202 201 202 204 200 184
288 290 293 296 301 302 302 301 301 303 303 306 305 300 287 282 281 286 292 295 299 301 302 304 298 296 277 241 223 212 218 224 226 231 228 218 215 206 200 200 198 196 190 183
315 312 313 312 311 305 302 303 303 302 303 303 304 304 300 294 288 283 287 290 286 284 287 293 297 294 277 254 253 219 227 234 236 242 235 216 219 222 212 203 200 200 192 186
324 322 321 319 318 315 313 312 309 306 307 307 305 305 306 306 303 295 285 283 282 284 290 293 280 269 257 236 244 227 232 235 232 239 237 225 217 222 222 208 204 205 198 192
324 323 321 321 320 319 318 315 309 308 314 310 301 303 304 304 302 299 293 291 294 304 301 292 285 269 254 241 234 230 227 236 237 227 226 233 222 216 222 214 206 209 204 199
313 313 315 319 317 316 318 314 309 312 314 309 306 305 305 306 307 307 302 297 303 316 315 298 295 287 282 281 231 237 241 242 242 237 232 237 229 217 214 218 216 212 204 200
306 307 311 312 309 307 306 308 314 318 313 307 302 301 303 304 304 301 302 311 317 313 311 292 293 295 298 284 238 236 239 231 226 228 227 230 232 220 218 220 217 210 202 195
308 311 312 311 311 310 309 317 322 316 311 313 314 317 316 315 311 309 305 311 317 308 301 293 291 283 289 259 242 244 244 235 225 220 219 219 222 225 223 218 215 211 202 196
308 307 307 311 312 309 309 315 320 323 325 321 321 325 324 315 306 309 306 301 306 307 298 287 283 276 260 248 241 244 245 238 235 230 226 225 227 226 222 218 211 206 208 205
301 304 309 310 306 308 310 314 317 318 316 316 318 321 322 319 309 303 302 302 300 303 304 279 260 253 241 241 241 239 241 250 246 242 237 237 236 231 228 220 211 206 206 205
296 300 302 304 309 310 307 306 301 299 301 301 303 308 309 308 307 308 308 306 306 305 309 303 294 269 242 247 259 256 253 246 241 235 231 231 235 230 221 221 218 209 202 203
Height
1475 1472 1473 1474 1473 1473 1475 1476 1481 1480 1479 1477 1475 1476 1476 1476 1477 1478 1479 1480 1481 1482 1484 1485 1486 1487 1489 1490 1491 1493 1494 1496 1498 1500 1501 1502 1504 1505 1505 1506 1507 1508 1509 1510
1477 1472 1472 1474 1472 1471 1472 1472 1474 1476 1477 1475 1475 1475 1475 1476 1477 1478 1479 1480 1481 1482 1483 1484 1485 1486 1487 1488 1489 1490 1491 1493 1495 1497 1498 1499 1501 1502 1503 1503 1504 1505 1506 1507
1481 1474 1473 1479 1473 1471 1471 1471 1473 1476 1477 1474 1475 1475 1476 1477 1477 1478 1479 1480 1481 1482 1482 1483 1484 1484 1485 1485 1486 1488 1489 1490 1492 1493 1495 1496 1498 1498 1499 1500 1501 1502 1503 1504
1482 1480 1487 1477 1468 1468 1469 1471 1472 1473 1474 1474 1476 1476 1477 1478 1478 1479 1479 1480 1480 1481 1481 1482 1482 1483 1483 1484 1484 1485 1487 1488 1489 1490 1492 1493 1494 1495 1497 1498 1498 1499 1500 1501
1484 1484 1480 1474 1470 1469 1471 1474 1474 1474 1475 1476 1475 1475 1477 1479 1479 1479 1479 1479 1479 1480 1480 1480 1481 1480 1481 1481 1482 1483 1484 1485 1486 1487 1488 1490 1491 1492 1493 1494 1495 1496 1497 1498
1483 1486 1486 1479 1472 1470 1472 1478 1477 1475 1476 1477 1476 1479 1480 1480 1480 1479 1479 1479 1479 1479 1479 1479 1479 1478 1478 1479 1479 1480 1481 1482 1483 1485 1485 1487 1488 1489 1490 1491 1492 1493 1494 1495
1483 1484 1481 1475 1472 1472 1481 1483 1479 1478 1478 1479 1479 1481 1481 1480 1479 1479 1479 1478 1478 1477 1477 1477 1477 1477 1476 1476 1477 1477 1478 1479 1480 1482 1482 1483 1484 1485 1487 1488 1489 1489 1490 1491
1480 1484 1486 1475 1474 1478 1480 1478 1479 1479 1479 1480 1480 1480 1480 1479 1479 1478 1477 1477 1476 1476 1475 1475 1475 1475 1474 1474 1475 1475 1476 1476 1477 1478 1480 1480 1481 1482 1483 1484 1485 1486 1486 1487
1479 1482 1478 1476 1477 1478 1478 1478 1479 1480 1479 1479 1479 1479 1479 1478 1478 1477 1477 1476 1475 1474 1473 1473 1473 1472 1472 1473 1473 1473 1473 1473 1474 1475 1476 1477 1478 1479 1480 1481 1481 1482 1483 1483
1475 1476 1476 1477 1477 1478 1478 1479 1479 1479 1479 1478 1478 1477 1477 1477 1477 1476 1475 1474 1473 1473 1472 1471 1471 1470 1470 1470 1470 1470 1470 1471 1472 1472 1473 1474 1475 1476 1477 1477 1478 1479 1479 1480
1474 1475 1476 1476 1477 1477 1478 1478 1477 1477 1477 1477 1476 1476 1475 1475 1475 1474 1473 1472 1472 1471 1470 1469 1469 1468 1468 1468 1468 1468 1468 1469 1469 1470 1470 1471 1472 1473 1474 1474 1475 1475 1476 1476
1475 1476 1476 1477 1477 1477 1476 1476 1476 1475 1474 1474 1474 1473 1473 1472 1472 1471 1470 1470 1469 1468 1468 1467 1466 1466 1465 1465 1465 1465 1465 1466 1466 1467 1468 1468 1469 1470 1470 1471 1472 1472 1473 1474
1475 1475 1475 1475 1475 1475 1474 1474 1473 1472 1471 1471 1471 1470 1469 1469 1468 1468 1467 1466 1466 1465 1465 1464 1463 1463 1462 1462 1462 1462 1462 1462 1463 1464 1464 1465 1466 1466 1466 1468 1469 1469 1469 1470
1473 1473 1473 1473 1473 1473 1472 1471 1470 1469 1468 1468 1467 1467 1466 1465 1465 1464 1463 1463 1462 1461 1461 1460 1460 1459 1459 1459 1459 1458 1459 1459 1459 1460 1461 1461 1462 1462 1463 1464 1464 1464 1465 1466
1471 1471 1471 1470 1470 1469 1469 1468 1467 1466 1465 1464 1464 1463 1462 1462 1461 1460 1459 1459 1458 1458 1457 1456 1456 1456 1455 1455 1455 1455 1455 1455 1455 1456 1457 1457 1458 1458 1459 1459 1460 1460 1461 1462
1468 1468 1468 1467 1467 1466 1465 1464 1463 1462 1461 1461 1460 1459 1459 1458 1457 1456 1455 1455 1454 1454 1453 1453 1452 1452 1452 1451 1451 1451 1451 1451 1452 1452 1453 1453 1454 1454 1455 1455 1456 1457 1457 1458
1465 1464 1464 1464 1463 1462 1462 1461 1460 1459 1458 1457 1457 1456 1455 1454 1453 1452 1452 1451 1451 1450 1450 1449 1448 1448 1448 1447 1447 1447 1447 1447 1448 1448 1449 1449 1449 1450 1451 1451 1452 1453 1453 1454
1462 1462 1462 1461 1460 1459 1458 1458 1457 1456 1455 1454 1453 1452 1451 1450 1449 1448 1448 1447 1447 1446 1446 1445 1445 1444 1444 1443 1443 1443 1443 1443 1444 1444 1445 1445 1445 1446 1447 1447 1448 1448 1449 1450
1460 1459 1459 1458 1457 1456 1455 1454 1453 1453 1452 1451 1450 1449 1447 1447 1446 1445 1444 1443 1442 1441 1441 1441 1441 1440 1440 1439 1439 1439 1439 1439 1440 1440 1441 1441 1442 1442 1443 1443 1443 1444 1445 1445
1457 1457 1456 1455 1454 1454 1452 1451 1450 1449 1448 1447 1446 1445 1444 1443 1442 1441 1440 1439 1438 1438 1437 1437 1436 1436 1436 1435 1435 1435 1435 1435 1435 1436 1436 1437 1437 1438 1438 1439 1439 1440 1441 1442
1455 1454 1453 1452 1451 1450 1449 1448 1447 1446 1444 1443 1442 1441 1440 1439 1438 1437 1436 1435 1434 1434 1433 1433 1432 1431 1431 1431 1431 1431 1431 1431 1431 1432 1432 1433 1434 1434 1434 1435 1436 1436 1437 1438
1453 1452 1451 1450 1449 1447 1446 1445 1444 1442 1441 1440 1439 1438 1437 1435 1434 1434 1433 1432 1431 1430 1429 1429 1428 1427 1427 1427 1427 1427 1427 1427 1428 1428 1428 1429 1430 1430 1430 1431 1432 1432 1433 1434
1451 1449 1448 1447 1446 1445 1443 1442 1441 1439 1438 1437 1436 1434 1433 1432 1431 1431 1429 1428 1428 1427 1426 1425 1424 1424 1424 1423 1423 1423 1423 1424 1424 1424 1425 1426 1426 1426 1427 1427 1428 1428 1429 1430
1448 1446 1445 1444 1443 1442 1440 1439 1437 1436 1435 1434 1433 1432 1431 1429 1428 1427 1426 1425 1424 1423 1422 1422 1421 1420 1420 1420 1420 1420 1420 1420 1421 1421 1422 1422 1423 1423 1423 1424 1424 1425 1425 1426
1445 1443 1442 1441 1440 1438 1437 1436 1434 1433 1432 1431 1430 1429 1428 1427 1426 1424 1423 1422 1421 1420 1419 1418 1418 1418 1417 1417 1417 1417 1417 1417 1418 1418 1418 1419 1419 1419 1420 1420 1420 1421 1422 1422
1441 1441 1440 1438 1437 1436 1435 1433 1432 1430 1429 1427 1426 1426 1424 1424 1423 1421 1420 1418 1417 1416 1416 1415 1415 1414 1414 1414 1414 1414 1414 1414 1415 1415 1415 1415 1415 1416 1416 1416 1417 1417 1418 1418
1438 1437 1436 1435 1434 1433 1432 1430 1428 1427 1426 1424 1423 1422 1421 1420 1419 1418 1417 1416 1415 1414 1413 1413 1412 1412 1411 1411 1411 1411 1411 1411 1412 1412 1412 1412 1412 1412 1412 1412 1413 1413 1414 1414